Baraboo, WI

6:22 AM CST on January 24, 2018 (GMT -0600)
Baraboo Wisconsin Dells

Weather History for KDLL - December, 2011

Change the Weather History Date:

Sunday, December 25, 2011

  Actual Average Record
Temperature  
Mean Temperature 32 °F -  
Max Temperature 37 °F 25 °F 57 °F (1982)
Min Temperature 28 °F 4 °F -20 °F (2000)
Degree Days  
Heating Degree Days 32    
Moisture  
Dew Point 25 °F    
Average Humidity 69    
Maximum Humidity 86    
Minimum Humidity 60    
Precipitation  
Precipitation 0.00 in - - ()
Sea Level Pressure  
Sea Level Pressure 30.10 in    
Wind  
Wind Speed 10 mph (WNW)    
Max Wind Speed 16 mph    
Max Gust Speed 29 mph    
Visibility 10 miles    
Events      
Averages and records for this station are not official NWS values.
T = Trace of Precipitation, MM = Missing Value Source: NWS Daily Summary

Daily Weather History Graph

Daily Weather History Graph

Search for Another Location

Airport or City:

Trip Planner

Search our weather history database for the weather conditions in past years. The results will help you decide how hot, cold, wet, or windy it might be!

Date:

Astronomy

Dec. 25, 2011 Rise Set
Actual Time 7:30 AM CST 4:27 PM CST
Civil Twilight 6:57 AM CST 5:00 PM CST
Nautical Twilight 6:21 AM CST 5:36 PM CST
Astronomical Twilight 5:46 AM CST 6:11 PM CST
Moon 8:07 AM CST (12/25) 5:50 PM CST (12/25)
Length of Visible Light 10h 02m
Length of Day
8h 57m
New Moon, 1% of the Moon is Illuminated
Dec 25
New Moon
Jan 1
First Quarter
Jan 9
Full
Jan 16
Last Quarter
Jan 23
New

Hourly Weather History & Observations

Time (CST) Temp. Windchill Dew Point Humidity Pressure Visibility Wind Dir Wind Speed Gust Speed Precip Events Conditions
12:15 AM 35.6 °F 27.5 °F 26.6 °F 70% 30.00 in 10.0 mi WSW 11.5 mph 16.1 mph N/A   Scattered Clouds
12:35 AM 35.6 °F 26.6 °F 26.6 °F 70% 29.98 in 10.0 mi SW 13.8 mph 18.4 mph N/A   Clear
12:55 AM 35.6 °F 27.5 °F 26.6 °F 70% 29.99 in 10.0 mi WSW 11.5 mph - N/A   Clear
1:35 AM 33.8 °F 25.8 °F 26.6 °F 75% 29.97 in 10.0 mi WSW 10.4 mph - N/A   Clear
1:55 AM 33.8 °F 25.8 °F 26.6 °F 75% 29.97 in 10.0 mi WSW 10.4 mph 17.3 mph N/A   Clear
2:15 AM 33.8 °F 26.4 °F 26.6 °F 75% 29.96 in 10.0 mi SW 9.2 mph - N/A   Clear
2:35 AM 33.8 °F 27.7 °F 24.8 °F 70% 29.96 in 10.0 mi SW 6.9 mph - N/A   Clear
2:55 AM 33.8 °F 27.7 °F 24.8 °F 70% 29.97 in 10.0 mi WSW 6.9 mph - N/A   Clear
3:35 AM 35.6 °F 28.0 °F 24.8 °F 65% 29.96 in 10.0 mi WSW 10.4 mph - N/A   Clear
3:55 AM 35.6 °F 27.5 °F 23.0 °F 60% 29.96 in 10.0 mi West 11.5 mph - N/A   Clear
4:15 AM 35.6 °F 28.0 °F 23.0 °F 60% 29.96 in 10.0 mi West 10.4 mph 18.4 mph N/A   Clear
4:35 AM 35.6 °F 28.0 °F 23.0 °F 60% 29.95 in 10.0 mi West 10.4 mph 17.3 mph N/A   Clear
4:55 AM 33.8 °F 26.4 °F 23.0 °F 65% 29.96 in 10.0 mi West 9.2 mph - N/A   Clear
5:15 AM 33.8 °F 27.7 °F 23.0 °F 65% 29.96 in 10.0 mi West 6.9 mph - N/A   Clear
5:35 AM 33.8 °F 25.8 °F 23.0 °F 65% 29.97 in 10.0 mi West 10.4 mph - N/A   Clear
6:15 AM 32.0 °F 23.6 °F 23.0 °F 69% 29.98 in 10.0 mi West 10.4 mph - N/A   Clear
6:35 AM 32.0 °F 24.8 °F 23.0 °F 69% 29.99 in 10.0 mi West 8.1 mph - N/A   Clear
6:55 AM 32.0 °F 24.8 °F 23.0 °F 69% 30.00 in 10.0 mi West 8.1 mph 16.1 mph N/A   Clear
7:15 AM 32.0 °F 24.8 °F 23.0 °F 69% 30.01 in 10.0 mi West 8.1 mph - N/A   Clear
7:35 AM 32.0 °F 24.2 °F 23.0 °F 69% 30.02 in 10.0 mi West 9.2 mph 16.1 mph N/A   Scattered Clouds
7:55 AM 32.0 °F 23.0 °F 23.0 °F 69% 30.03 in 10.0 mi West 11.5 mph 17.3 mph N/A   Scattered Clouds
8:35 AM 33.8 °F 24.8 °F 24.8 °F 70% 30.05 in 10.0 mi WNW 12.7 mph 18.4 mph N/A   Clear
8:55 AM 33.8 °F 23.9 °F 26.6 °F 75% 30.05 in 10.0 mi WNW 15.0 mph 19.6 mph N/A   Clear
9:15 AM 35.6 °F 26.6 °F 26.6 °F 70% 30.06 in 10.0 mi WNW 13.8 mph 19.6 mph N/A   Clear
9:35 AM 35.6 °F 26.6 °F 26.6 °F 70% 30.07 in 10.0 mi WNW 13.8 mph 21.9 mph N/A   Clear
9:55 AM 37.4 °F 28.5 °F 26.6 °F 65% 30.08 in 10.0 mi WNW 15.0 mph 24.2 mph N/A   Clear
10:15 AM 37.4 °F 28.9 °F 26.6 °F 65% 30.09 in 10.0 mi WNW 13.8 mph 24.2 mph N/A   Clear
10:35 AM 37.4 °F 28.2 °F 26.6 °F 65% 30.09 in 10.0 mi NW 16.1 mph 23.0 mph N/A   Clear
10:55 AM 37.4 °F 28.9 °F 26.6 °F 65% 30.10 in 10.0 mi WNW 13.8 mph 24.2 mph N/A   Clear
11:15 AM 37.4 °F 28.5 °F 26.6 °F 65% 30.11 in 10.0 mi WNW 15.0 mph 21.9 mph N/A   Scattered Clouds
11:35 AM 37.4 °F 29.3 °F 26.6 °F 65% 30.11 in 10.0 mi NW 12.7 mph 25.3 mph N/A   Overcast
11:55 AM 37.4 °F 29.3 °F 26.6 °F 65% 30.12 in 10.0 mi NW 12.7 mph 27.6 mph N/A   Overcast
12:15 PM 37.4 °F 28.9 °F 26.6 °F 65% 30.12 in 10.0 mi NW 13.8 mph 23.0 mph N/A   Overcast
12:55 PM 37.4 °F 30.3 °F 26.6 °F 65% 30.13 in 10.0 mi WNW 10.4 mph 23.0 mph N/A   Overcast
1:15 PM 37.4 °F 28.9 °F 26.6 °F 65% 30.13 in 10.0 mi WNW 13.8 mph 20.7 mph N/A   Overcast
1:35 PM 37.4 °F 28.9 °F 24.8 °F 60% 30.14 in 10.0 mi NW 13.8 mph 23.0 mph N/A   Overcast
2:15 PM 37.4 °F 29.8 °F 24.8 °F 60% 30.16 in 10.0 mi NW 11.5 mph 28.8 mph N/A   Overcast
2:35 PM 37.4 °F 28.9 °F 26.6 °F 65% 30.16 in 10.0 mi NW 13.8 mph 18.4 mph N/A   Overcast
2:55 PM 37.4 °F 28.9 °F 24.8 °F 60% 30.18 in 10.0 mi NW 13.8 mph 20.7 mph N/A   Mostly Cloudy
3:15 PM 37.4 °F 30.8 °F 26.6 °F 65% 30.18 in 10.0 mi NNW 9.2 mph - N/A   Mostly Cloudy
3:35 PM 37.4 °F 31.4 °F 26.6 °F 65% 30.20 in 10.0 mi NNW 8.1 mph - N/A   Overcast
3:55 PM 37.4 °F 32.1 °F 26.6 °F 65% 30.21 in 10.0 mi NNW 6.9 mph - N/A   Overcast
4:35 PM 35.6 °F 27.1 °F 26.6 °F 70% 30.23 in 10.0 mi NNW 12.7 mph 18.4 mph N/A   Overcast
4:55 PM 35.6 °F 29.2 °F 26.6 °F 70% 30.24 in 10.0 mi NW 8.1 mph - N/A   Overcast
5:15 PM 35.6 °F 29.9 °F 26.6 °F 70% 30.24 in 10.0 mi NW 6.9 mph - N/A   Overcast
5:35 PM 33.8 °F 30.8 °F 26.6 °F 75% 30.25 in 10.0 mi NW 3.5 mph - N/A   Overcast
5:55 PM 33.8 °F 28.6 °F 26.6 °F 75% 30.25 in 10.0 mi NNW 5.8 mph - N/A   Scattered Clouds
6:15 PM 33.8 °F 30.8 °F 24.8 °F 70% 30.26 in 10.0 mi NW 3.5 mph - N/A   Scattered Clouds
6:35 PM 32.0 °F - 24.8 °F 75% 30.26 in 10.0 mi Calm Calm - N/A   Clear
6:55 PM 32.0 °F 28.7 °F 24.8 °F 75% 30.25 in 10.0 mi NW 3.5 mph - N/A   Clear
7:15 PM 30.2 °F 26.7 °F 24.8 °F 80% 30.25 in 10.0 mi WNW 3.5 mph - N/A   Clear
7:35 PM 30.2 °F 26.7 °F 24.8 °F 80% 30.27 in 10.0 mi West 3.5 mph - N/A   Clear
7:55 PM 30.2 °F - 24.8 °F 80% 30.27 in 10.0 mi Calm Calm - N/A   Clear
8:15 PM 28.4 °F - 23.0 °F 80% 30.27 in 10.0 mi Calm Calm - N/A   Clear
8:35 PM 28.4 °F - 24.8 °F 86% 30.27 in 10.0 mi Calm Calm - N/A   Clear
8:55 PM 28.4 °F - 24.8 °F 86% 30.26 in 10.0 mi Calm Calm - N/A   Clear
9:15 PM 26.6 °F - 23.0 °F 86% 30.25 in 10.0 mi Calm Calm - N/A   Clear
9:35 PM 28.4 °F 24.6 °F 24.8 °F 86% 30.25 in 10.0 mi South 3.5 mph - N/A   Clear
9:55 PM 26.6 °F 21.2 °F 23.0 °F 86% 30.25 in 10.0 mi SSW 4.6 mph - N/A   Clear
10:15 PM 26.6 °F - 23.0 °F 86% 30.25 in 10.0 mi Calm Calm - N/A   Clear
10:35 PM 26.6 °F - 23.0 °F 86% 30.25 in 10.0 mi Calm Calm - N/A   Clear
10:55 PM 26.6 °F 22.6 °F 24.8 °F 93% 30.25 in 10.0 mi WSW 3.5 mph - N/A   Clear
11:15 PM 28.4 °F 23.3 °F 23.0 °F 80% 30.25 in 10.0 mi WSW 4.6 mph - N/A   Clear
11:35 PM 28.4 °F - 23.0 °F 80% 30.25 in 10.0 mi Calm Calm - N/A   Clear
11:55 PM 24.8 °F 20.5 °F 21.2 °F 86% 30.24 in 10.0 mi SSW 3.5 mph - N/A   Clear